This is the latest recevied weather packets stored in our database for station/object DM2KB-13. If no packets are shown the sender has not sent any weather packets the latest 10 day(s).
| Time | Temp. | Humidity | Pressure | Rain* | Wind** | Luminosity | Snow |
|---|---|---|---|---|---|---|---|
| 1777207072 | 17.22° C | 45% | 1024.4 hPa | 0 mm | - | 752 W/m² | - |
| 1777206772 | 17.22° C | 45% | 1024.4 hPa | 0 mm | - | 817 W/m² | - |
| 1777206472 | 17.22° C | 44% | 1024.5 hPa | 0 mm | - | 810 W/m² | - |
| 1777206171 | 17.22° C | 46% | 1024.5 hPa | 0 mm | - | 759 W/m² | - |
| 1777205871 | 17.22° C | 46% | 1024.5 hPa | 0 mm | - | 858 W/m² | - |
| 1777205571 | 17.22° C | 45% | 1024.6 hPa | 0 mm | - | 882 W/m² | - |
| 1777205270 | 17.22° C | 47% | 1024.5 hPa | 0 mm | - | 580 W/m² | - |
| 1777204970 | 17.22° C | 48% | 1024.6 hPa | 0 mm | - | 784 W/m² | - |
| 1777204670 | 17.22° C | 46% | 1024.6 hPa | 0 mm | - | 828 W/m² | - |
| 1777204370 | 16.67° C | 44% | 1024.6 hPa | 0 mm | - | 814 W/m² | - |
| 1777204069 | 16.67° C | 45% | 1024.5 hPa | 0 mm | - | 831 W/m² | - |
| 1777203769 | 16.67° C | 45% | 1024.5 hPa | 0 mm | - | 809 W/m² | - |
| 1777203469 | 16.11° C | 47% | 1024.5 hPa | 0 mm | - | 868 W/m² | - |
| 1777203169 | 16.11° C | 45% | 1024.5 hPa | 0 mm | - | 870 W/m² | - |
| 1777202868 | 16.11° C | 47% | 1024.6 hPa | 0 mm | - | 788 W/m² | - |
| 1777202568 | 15.56° C | 48% | 1024.6 hPa | 0 mm | - | 854 W/m² | - |
| 1777202268 | 15.56° C | 48% | 1024.7 hPa | 0 mm | - | 847 W/m² | - |
| 1777201967 | 15.56° C | 50% | 1024.7 hPa | 0 mm | - | 803 W/m² | - |
| 1777201667 | 15.56° C | 47% | 1024.7 hPa | 0 mm | - | 684 W/m² | - |
| 1777201367 | 15.56° C | 52% | 1024.7 hPa | 0 mm | - | 789 W/m² | - |
| 1777201067 | 15.56° C | 50% | 1024.8 hPa | 0 mm | - | 793 W/m² | - |
| 1777200766 | 15° C | 51% | 1024.9 hPa | 0 mm | - | 789 W/m² | - |
| 1777200466 | 15° C | 52% | 1024.9 hPa | 0 mm | - | 775 W/m² | - |
| 1777200166 | 14.44° C | 51% | 1024.9 hPa | 0 mm | - | 846 W/m² | - |
| 1777199865 | 14.44° C | 54% | 1024.9 hPa | 0 mm | - | 807 W/m² | - |
* Rain latest hour (hover to see other rain measurements)
** Current wind speed in m/s (hover to see current wind gust speed)